SNEZKA Weather Reports


time (UTC)temp
C
wind
direction
speed
KPH
gust
KPH
rain 1hr
cm
rain 24hr
cm
rain mn
cm
humidity
%
barometer
mb
20260506012100 6 290 35.4 0.0 0.00 0.00 0.00 99
20260506001957 6 220 41.8 0.0 0.00 0.00 0.00 99
20260505231957 7 230 41.8 0.0 0.00 0.00 0.00 99
20260505221958 7 150 29.0 0.0 0.00 0.00 0.00 99
20260505212046 7 110 22.5 0.0 0.00 0.00 0.00 87
20260505202041 7 60 8.0 0.0 0.00 0.00 0.00 99
20260505192034 7 100 19.3 0.0 0.00 0.00 0.00 99
20260505182027 8 40 14.5 0.0 0.00 0.00 0.00 93
20260505172026 8 20 25.7 0.0 0.00 0.00 0.00 99
20260505162114 10 10 22.5 0.0 0.00 0.00 0.00 81
20260505152026 11 20 25.7 0.0 0.00 0.00 0.00 81
20260505121958 11 30 19.3 0.0 0.00 0.00 0.00 71
20260505111958 10 10 14.5 0.0 0.00 0.00 0.00 76
20260505101958 11 10 8.0 0.0 0.00 0.00 0.00 71
20260505091957 12 210 8.0 0.0 0.00 0.00 0.00 66
20260505081959 10 160 14.5 0.0 0.00 0.00 0.00 57
20260505071959 10 150 22.5 0.0 0.00 0.00 0.00 57
20260505061959 11 150 19.3 0.0 0.00 0.00 0.00 50
20260505051958 10 220 19.3 0.0 0.00 0.00 0.00 57
20260505031957 10 200 38.6 0.0 0.00 0.00 0.00 57
20260505021957 7 250 19.3 35.4 0.00 0.00 0.00 70